User: anonymous   Login
Location: Fort Wayne
(41.1310°N, 85.1290°W)
Time: 19:52:43
(UTC-04:00)
Language:

Cosmos 2227 Rocket - Orbit

View from above orbital plane
View from above orbital plane
View from above satellite
View from above satellite

Ground track
Ground track

The orbit data is extracted from the following two-line orbital elements,

1 22285U 92093B   16119.12937036  .00000119  00000-0  85811-4 0  9999
2 22285  71.0237   2.9607 0003309   9.2860 350.8323 14.14996577203827
Epoch (UTC): 28 April 2016 03:06:17
Eccentricity: 0.0003309
inclination: 71.0237°
perigee height: 840 km
apogee height: 845 km
right ascension of ascending node: 2.9607°
argument of perigee: 9.2860°
revolutions per day: 14.14996577
mean anomaly at epoch: 350.8323°
orbit number at epoch: 20382

The dashed part of the orbit path shows where the satellite is in the earth's shadow,  

DLR